When you browse on this site, cookies collect data to enhance your experience and personalize the content and advertising you see.
Visit our Privacy Policy to learn more. By continuing to use the site, you agree to this use of cookies and data.
  • în România
  • Lista ţărilor
  • Pe 7 zile
  • Temperatura apei
  • Hartă satelitară
  • Meteo pe hartă
  • Widget-uri
  • user-avatar
    Intrare

    Meteo pe oră la Kumskoy

    Astăzi, 16 Ianuarie, Miercuri

    Timp Temperatura Precipitaţii Vânt Presiune Umiditate
    00:00 -1°C° 0 mm 3 m/s 722 mmHg 83%
    01:00 +1°C° 0 mm 2 m/s 722 mmHg 80%
    02:00 +1°C° 0 mm 2 m/s 722 mmHg 77%
    03:00 0°C° 0 mm 0 m/s 721 mmHg 81%
    04:00 +1°C° 0 mm 0 m/s 721 mmHg 77%
    05:00 +3°C° 0 mm 1 m/s 722 mmHg 73%
    06:00 +3°C° 0 mm 1 m/s 722 mmHg 70%
    07:00 +4°C° 0 mm 1 m/s 722 mmHg 66%
    08:00 +5°C° 0 mm 1 m/s 721 mmHg 62%
    09:00 +6°C° 0 mm 1 m/s 721 mmHg 58%
    10:00 +6°C° 0 mm 2 m/s 722 mmHg 57%
    11:00 +7°C° 0 mm 3 m/s 722 mmHg 57%
    12:00 +7°C° 0 mm 4 m/s 723 mmHg 56%
    13:00 +5°C° 0 mm 5 m/s 724 mmHg 64%
    14:00 +3°C° 0 mm 7 m/s 725 mmHg 71%
    15:00 -1°C° 0 mm 9 m/s 725 mmHg 80%
    16:00 -1°C° 0 mm 7 m/s 726 mmHg 80%
    17:00 -2°C° 0 mm 6 m/s 727 mmHg 80%
    18:00 -2°C° 0 mm 5 m/s 728 mmHg 80%
    19:00 -2°C° 0 mm 4 m/s 728 mmHg 80%
    20:00 -2°C° 0 mm 4 m/s 729 mmHg 80%
    21:00 -1°C° 0 mm 3 m/s 729 mmHg 80%
    22:00 -1°C° 0 mm 3 m/s 729 mmHg 79%
    23:00 -1°C° 0 mm 3 m/s 730 mmHg 78%

    Mâine, 17 Ianuarie, Joi

    Timp Temperatura Precipitaţii Vânt Presiune Umiditate
    00:00 -2°C° 0 mm 2 m/s 730 mmHg 78%
    01:00 -2°C° 0.1 mm 2 m/s 730 mmHg 78%
    02:00 -2°C° 0.1 mm 2 m/s 730 mmHg 78%
    03:00 0°C° 0.1 mm 1 m/s 731 mmHg 79%
    04:00 0°C° 0.1 mm 1 m/s 731 mmHg 80%
    05:00 0°C° 0.1 mm 1 m/s 732 mmHg 81%
    06:00 0°C° 0.1 mm 1 m/s 732 mmHg 81%
    07:00 0°C° 0 mm 1 m/s 733 mmHg 80%
    08:00 0°C° 0 mm 1 m/s 733 mmHg 79%
    09:00 -1°C° 0 mm 0 m/s 734 mmHg 78%
    10:00 0°C° 0 mm 1 m/s 734 mmHg 75%
    11:00 +1°C° 0 mm 1 m/s 734 mmHg 71%
    12:00 +1°C° 0 mm 1 m/s 735 mmHg 68%
    13:00 +2°C° 0 mm 1 m/s 735 mmHg 68%
    14:00 +2°C° 0 mm 1 m/s 735 mmHg 67%
    15:00 +1°C° 0 mm 2 m/s 735 mmHg 66%
    16:00 -1°C° 0 mm 2 m/s 736 mmHg 71%
    17:00 +1°C° 0 mm 1 m/s 737 mmHg 75%
    18:00 0°C° 0 mm 1 m/s 737 mmHg 80%
    19:00 0°C° 0 mm 1 m/s 737 mmHg 81%
    20:00 0°C° 0 mm 1 m/s 738 mmHg 83%
    21:00 -1°C° 0 mm 1 m/s 738 mmHg 85%
    22:00 -1°C° 0 mm 1 m/s 738 mmHg 84%
    23:00 -1°C° 0 mm 1 m/s 738 mmHg 84%

    Poimâine, 18 Ianuarie, Vineri

    Timp Temperatura Precipitaţii Vânt Presiune Umiditate
    00:00 0°C° 0 mm 1 m/s 739 mmHg 83%
    01:00 0°C° 0 mm 1 m/s 739 mmHg 81%
    02:00 0°C° 0 mm 1 m/s 739 mmHg 78%
    03:00 -1°C° 0 mm 0 m/s 739 mmHg 76%
    04:00 0°C° 0 mm 1 m/s 739 mmHg 73%
    05:00 0°C° 0 mm 1 m/s 739 mmHg 70%
    06:00 0°C° 0 mm 1 m/s 739 mmHg 67%
    07:00 0°C° 0 mm 1 m/s 740 mmHg 63%
    08:00 +1°C° 0 mm 1 m/s 740 mmHg 59%
    09:00 +1°C° 0 mm 1 m/s 740 mmHg 54%
    10:00 +3°C° 0 mm 1 m/s 740 mmHg 49%
    11:00 +3°C° 0 mm 0 m/s 739 mmHg 44%
    12:00 +4°C° 0 mm 0 m/s 739 mmHg 39%
    13:00 +4°C° 0 mm 0 m/s 739 mmHg 41%
    14:00 +4°C° 0 mm 0 m/s 739 mmHg 44%
    15:00 +6°C° 0 mm 1 m/s 738 mmHg 46%
    16:00 +4°C° 0 mm 1 m/s 739 mmHg 51%
    17:00 +3°C° 0 mm 1 m/s 739 mmHg 55%
    18:00 +2°C° 0 mm 1 m/s 739 mmHg 60%
    19:00 +1°C° 0 mm 1 m/s 739 mmHg 61%
    20:00 +1°C° 0 mm 1 m/s 739 mmHg 61%
    21:00 +1°C° 0 mm 1 m/s 739 mmHg 62%
    22:00 +1°C° 0 mm 1 m/s 739 mmHg 61%
    23:00 +1°C° 0 mm 1 m/s 739 mmHg 60%

    19 Ianuarie, Sâmbătă

    Timp Temperatura Precipitaţii Vânt Presiune Umiditate
    00:00 +1°C° 0 mm 1 m/s 739 mmHg 58%
    01:00 +1°C° 0 mm 1 m/s 739 mmHg 57%
    02:00 +1°C° 0 mm 1 m/s 739 mmHg 55%
    03:00 +1°C° 0 mm 1 m/s 738 mmHg 53%
    04:00 +1°C° 0 mm 1 m/s 738 mmHg 51%
    05:00 +1°C° 0 mm 1 m/s 738 mmHg 49%
    06:00 0°C° 0 mm 0 m/s 738 mmHg 46%
    07:00 +2°C° 0 mm 1 m/s 738 mmHg 44%
    08:00 +2°C° 0 mm 1 m/s 738 mmHg 41%
    09:00 +3°C° 0 mm 1 m/s 738 mmHg 38%
    10:00 +4°C° 0 mm 1 m/s 738 mmHg 34%
    11:00 +6°C° 0 mm 1 m/s 737 mmHg 31%
    12:00 +7°C° 0 mm 1 m/s 737 mmHg 28%
    13:00 +7°C° 0 mm 1 m/s 737 mmHg 31%
    14:00 +6°C° 0 mm 0 m/s 737 mmHg 34%
    15:00 +6°C° 0 mm 0 m/s 737 mmHg 37%
    16:00 +5°C° 0 mm 0 m/s 737 mmHg 38%
    17:00 +4°C° 0 mm 0 m/s 737 mmHg 38%
    18:00 +4°C° 0 mm 1 m/s 738 mmHg 39%
    19:00 +4°C° 0 mm 1 m/s 738 mmHg 39%
    20:00 +4°C° 0 mm 1 m/s 738 mmHg 38%
    21:00 +3°C° 0 mm 1 m/s 738 mmHg 38%
    22:00 +3°C° 0 mm 1 m/s 738 mmHg 38%
    23:00 +3°C° 0 mm 1 m/s 738 mmHg 38%

    20 Ianuarie, Duminică

    Timp Temperatura Precipitaţii Vânt Presiune Umiditate
    00:00 +3°C° 0 mm 1 m/s 738 mmHg 38%
    01:00 +3°C° 0 mm 1 m/s 738 mmHg 38%
    02:00 +3°C° 0 mm 1 m/s 738 mmHg 39%
    03:00 +3°C° 0 mm 1 m/s 738 mmHg 39%
    04:00 +3°C° 0 mm 1 m/s 738 mmHg 40%
    05:00 +3°C° 0 mm 1 m/s 738 mmHg 40%
    06:00 +3°C° 0 mm 1 m/s 738 mmHg 41%
    07:00 +2°C° 0 mm 0 m/s 739 mmHg 43%
    08:00 +2°C° 0 mm 0 m/s 739 mmHg 44%
    09:00 +3°C° 0 mm 0 m/s 739 mmHg 45%
    10:00 +3°C° 0 mm 0 m/s 739 mmHg 45%
    11:00 +4°C° 0 mm 0 m/s 739 mmHg 45%
    12:00 +5°C° 0 mm 0 m/s 739 mmHg 45%
    13:00 +6°C° 0 mm 1 m/s 739 mmHg 49%
    14:00 +6°C° 0 mm 1 m/s 739 mmHg 52%
    15:00 +6°C° 0 mm 1 m/s 738 mmHg 56%
    16:00 +5°C° 0 mm 1 m/s 739 mmHg 60%
    17:00 +4°C° 0 mm 1 m/s 739 mmHg 64%
    18:00 +3°C° 0 mm 1 m/s 739 mmHg 67%
    19:00 +2°C° 0 mm 2 m/s 739 mmHg 67%
    20:00 +1°C° 0 mm 2 m/s 739 mmHg 68%
    21:00 +1°C° 0 mm 2 m/s 739 mmHg 68%
    22:00 +1°C° 0 mm 2 m/s 739 mmHg 67%
    23:00 +1°C° 0 mm 2 m/s 739 mmHg 67%

    21 Ianuarie, Luni

    Timp Temperatura Precipitaţii Vânt Presiune Umiditate
    00:00 -1°C° 0 mm 2 m/s 739 mmHg 66%
    01:00 -1°C° 0 mm 2 m/s 739 mmHg 66%
    02:00 -1°C° 0 mm 2 m/s 738 mmHg 66%
    03:00 -1°C° 0 mm 2 m/s 738 mmHg 67%
    04:00 -1°C° 0 mm 2 m/s 738 mmHg 68%
    05:00 -1°C° 0 mm 2 m/s 738 mmHg 69%
    06:00 -1°C° 0 mm 2 m/s 737 mmHg 70%
    07:00 -1°C° 0 mm 3 m/s 737 mmHg 68%
    08:00 -1°C° 0 mm 3 m/s 737 mmHg 67%
    09:00 0°C° 0 mm 3 m/s 737 mmHg 65%
    10:00 +1°C° 0 mm 3 m/s 736 mmHg 60%
    11:00 +2°C° 0 mm 3 m/s 736 mmHg 55%
    12:00 +3°C° 0 mm 3 m/s 735 mmHg 49%
    13:00 +4°C° 0 mm 3 m/s 735 mmHg 51%
    14:00 +4°C° 0 mm 3 m/s 734 mmHg 52%
    15:00 +5°C° 0 mm 2 m/s 734 mmHg 53%
    16:00 +4°C° 0 mm 2 m/s 734 mmHg 58%
    17:00 +3°C° 0 mm 2 m/s 734 mmHg 63%
    18:00 +2°C° 0 mm 2 m/s 734 mmHg 67%
    19:00 +3°C° 0 mm 1 m/s 734 mmHg 65%
    20:00 +3°C° 0 mm 1 m/s 734 mmHg 63%
    21:00 +3°C° 0 mm 1 m/s 734 mmHg 62%
    22:00 +3°C° 0 mm 1 m/s 734 mmHg 59%
    23:00 +3°C° 0 mm 1 m/s 734 mmHg 57%
    Arată mai mult